This demonstration page uses our WeatherBlox Daily Observations layout. Learn more.

Left ArrowRight Arrow

38.88101, -77.10428

Hourly Observations for October 15, 2021

Temp ( °F °C ) Dew Point ( °F °C ) Humidity (%) Winds ( mph kmh ) Pressure ( in mb ) Visibility ( mi km ) Precip ( " mm )
12:52 am 00:52 Partly Cloudy 67 19.4 62 16.7 84 84 S 3 6 29.96 1014 10 16 N/A
1:52 am 01:52 Partly Cloudy 66 18.9 60 15.6 81 81 SW 3 6 29.96 1015 10 16 N/A
2:52 am 02:52 Partly Cloudy 65 18.3 60 15.6 84 84 SSW 3 6 29.95 1014 10 16 N/A
3:52 am 03:52 Partly Cloudy 65 18.3 60 15.6 84 84 N N/A 29.94 1014 10 16 N/A
4:52 am 04:52 Mostly Clear 65 18.3 59 15 81 81 N N/A 29.94 1014 10 16 N/A
5:52 am 05:52 Mostly Cloudy 65 18.3 59 15 81 81 N N/A 29.95 1014 10 16 N/A
6:52 am 06:52 Mostly Cloudy 65 18.3 60 15.6 84 84 SW 5 7 29.95 1014 10 16 N/A
7:52 am 07:52 Mostly Cloudy 66 18.9 61 16.1 84 84 SW 3 6 29.96 1015 10 16 N/A
8:52 am 08:52 Mostly Cloudy 67 19.4 62 16.7 84 84 S 3 6 29.97 1015 10 16 N/A
9:52 am 09:52 Mostly Cloudy 69 20.6 63 17.2 81 81 SSE 7 11 29.98 1015 10 16 N/A
10:52 am 10:52 Mostly Cloudy 72 22.2 62 16.7 71 71 S 7 11 29.98 1015 10 16 N/A
11:52 am 11:52 Mostly Cloudy 74 23.3 62 16.7 67 67 S 5 7 29.97 1015 10 16 N/A
12:52 pm 12:52 Mostly Cloudy 77 25 62 16.7 60 60 S 8 13 29.96 1014 10 16 N/A
1:52 pm 13:52 Partly Cloudy 79 26.1 65 18.3 62 62 S 9 15 29.93 1013 10 16 N/A
2:52 pm 14:52 Partly Cloudy 80 26.7 64 17.8 58 58 S 9 15 29.91 1013 10 16 N/A
3:52 pm 15:52 Mostly Cloudy 79 26.1 65 18.3 62 62 S 9 15 29.91 1013 10 16 N/A
4:52 pm 16:52 Mostly Cloudy 79 26.1 65 18.3 62 62 S 9 15 29.91 1013 10 16 N/A
5:52 pm 17:52 Mostly Cloudy 75 23.9 66 18.9 74 74 S 8 13 29.90 1013 10 16 N/A
6:52 pm 18:52 Mostly Cloudy 74 23.3 65 18.3 74 74 S 7 11 29.89 1012 10 16 N/A
7:52 pm 19:52 Mostly Cloudy 72 22.2 65 18.3 79 79 S 5 7 29.89 1012 10 16 N/A
8:52 pm 20:52 Cloudy 71 21.7 64 17.8 79 79 S 8 13 29.88 1012 10 16 N/A
9:52 pm 21:52 Mostly Cloudy 71 21.7 64 17.8 79 79 S 8 13 29.88 1012 10 16 N/A
10:52 pm 22:52 Partly Cloudy 70 21.1 64 17.8 82 82 S 6 9 29.87 1012 10 16 N/A
11:52 pm 23:52 Mostly Cloudy 70 21.1 63 17.2 79 79 S 6 9 29.87 1011 10 16 N/A

Powered by AerisWeather